Content
SEND FEEDBACK

Daily
Averages
Monthly
Summary
United States of America

WICHITA, KANSAS


Home > North America > United States > Kansas
Elevation: 1321 feet     Latitude: 37 39N     Longitude: 097 26W

WEATHER
 
SELECT A DAY
Number of Records: 192,005;   Date Range: 1/1/95 - 8/12/14
 
SHARE

PRINT THIS DATA

[ ← Previous Day ]
WEATHER ALMANAC - FEBRUARY 1, 2013
[ Next Day → ]
[ °C ]   °F
Weather ElementAverageHighLow
Temperature23.4 °F37 °F (4:53 pm)10.9 °F (3:53 am)
Dewpoint8.1 °F12.9 °F (9:53 pm)5 °F (4:53 am)
Humidity55.2 %84 % (3:53 am)31 % (4:53 pm)
Barometer30.34 in30.48 in (1:53 am)30.20 in (10:53 pm)
Wind Speed7.9 mph17.3 mph (3:53 pm)
Wind Gust19.6 mph (12:53 pm)
Weather ElementAverage
Visibility10 mi
Wind DirectionSSE (163.9 °)

Weather ElementTotal
Precipitation---
Heating Degree Days41.1 (Base 65)
Averaged from 23 records on February 1, 2013
WEATHER CONDITIONS BREAKOUT
WIND DIRECTION BREAKOUT
WEATHER BY HOUR - FEBRUARY 1, 2013
[ °C ]   °F
Local TimeTemperatureDewpointHumidityBarometerVisibilityWind DirectionWind SpeedGust SpeedPrecipitationEventsConditions
1:53 AM12.0 °F7.0 °F80 %30.48 in10.0 miWSW (240°)5.8 mphClear
2:53 AM14.0 °F7.0 °F74 %30.48 in10.0 miCalmClear
3:53 AM10.9 °F7.0 °F84 %30.47 in10.0 miSSW (210°)4.6 mphClear
4:53 AM10.9 °F5.0 °F77 %30.45 in10.0 miSSW (200°)4.6 mphClear
5:53 AM12.9 °F6.1 °F74 %30.46 in10.0 miCalmClear
6:53 AM12.0 °F6.1 °F77 %30.46 in10.0 miCalmScattered Clouds
7:53 AM15.1 °F9.0 °F77 %30.46 in10.0 miSouth (180°)4.6 mphMostly Cloudy
8:53 AM18.0 °F10.0 °F71 %30.45 in10.0 miSouth (190°)9.2 mphMostly Cloudy
9:53 AM21.0 °F10.0 °F63 %30.44 in10.0 miSouth (180°)11.5 mphMostly Cloudy
10:53 AM24.1 °F5.0 °F44 %30.44 in10.0 miSouth (190°)13.8 mphMostly Cloudy
11:53 AM26.6 °F5.0 °F40 %30.34 in10.0 miSouth (180°)15.0 mphMostly Cloudy
12:53 PM30.0 °F5.0 °F35 %30.36 in10.0 miSouth (190°)11.5 mph19.6 mphMostly Cloudy
1:53 PM33.8 °F6.8 °F32 %30.24 in10.0 miSouth (180°)10.4 mphMostly Cloudy
2:53 PM33.1 °F7.0 °F34 %30.27 in10.0 miSSW (210°)10.4 mphMostly Cloudy
3:53 PM35.1 °F8.1 °F33 %30.23 in10.0 miSouth (180°)17.3 mphMostly Cloudy
4:53 PM37.0 °F9.0 °F31 %30.21 in10.0 miSouth (190°)16.1 mphScattered Clouds
5:53 PM30.9 °F9.0 °F40 %30.22 in10.0 miSouth (180°)8.1 mphScattered Clouds
6:53 PM27.0 °F8.1 °F45 %30.22 in10.0 miSSE (160°)6.9 mphPartly Cloudy
7:53 PM27.0 °F9.0 °F47 %30.21 in10.0 miSSE (150°)8.1 mphPartly Cloudy
8:53 PM26.1 °F10.9 °F53 %30.21 in10.0 miSouth (170°)6.9 mphPartly Cloudy
9:53 PM28.9 °F12.9 °F51 %30.22 in10.0 miSouth (190°)4.6 mphMostly Cloudy
10:53 PM28.0 °F12.0 °F51 %30.20 in10.0 miSouth (190°)6.9 mphScattered Clouds
11:53 PM24.1 °F10.9 °F57 %30.21 in10.0 miSSW (210°)5.8 mphPartly Cloudy
Hourly data recorded from KICT, located miles away from Wichita, Kansas







STORIES FROM OUR PARTNERS